Location: Spruce Knob
(38.6995°N, 79.5330°W)
Time: 22:14:40
(UTC-05:00)

Courier 1B Rocket - Visible Passes

Search period start: 27 January 2022 00:00
Search period end: 06 February 2022 00:00
Orbit: 920 x 1202 km, 28.2° (Epoch: 27 January)

Date Brightness Start Highest point End Pass type
(mag) Time Alt. Az. Time Alt. Az. Time Alt. Az.
27 Jan 7.5 03:39:36 12° SE 03:39:36 12° SE 03:40:12 10° SE visible
27 Jan 6.5 05:25:59 19° SSW 05:26:54 20° SSW 05:31:29 10° SSE visible
28 Jan 6.8 04:28:45 20° SSE 04:28:45 20° SSE 04:31:27 10° SE visible
28 Jan 7.2 06:18:17 10° SSW 06:18:30 10° SSW 06:18:43 10° SSW visible
29 Jan 6.9 05:17:55 15° SSW 05:17:55 15° SSW 05:21:28 10° S visible
30 Jan 7.2 04:20:45 14° SSE 04:20:45 14° SSE 04:21:54 10° SSE visible
31 Jan 7.2 05:09:58 10° SSW 05:09:58 10° SSW 05:10:05 10° SSW visible
02 Feb 7.2 20:22:21 10° SSW 20:24:35 15° S 20:24:35 15° S visible
03 Feb 7.2 19:23:27 10° S 19:26:10 12° SSE 19:27:28 12° SE visible
03 Feb 7.4 21:12:32 10° SW 21:13:51 15° SSW 21:13:51 15° SSW visible
04 Feb 6.8 20:12:12 10° SSW 20:16:42 22° S 20:16:42 22° S visible
05 Feb 7.0 19:12:22 10° SSW 19:16:55 17° SSE 19:19:33 14° SE visible
05 Feb 7.0 21:03:04 10° SW 21:05:55 22° SSW 21:05:55 22° SSW visible
